#
# The Tor Project
#
# URL: https://metrics.torproject.org/bandwidth.csv?start=2013-09-05&end=2014-12-04
#
date,advbw,bwhist
2013-09-05,37.233053464,23.479756552
2013-09-06,39.13140312,23.602803656
2013-09-07,39.001690592,23.85319114
2013-09-08,38.19433472,22.930869152
2013-09-09,37.537413256,22.822677992
2013-09-10,36.793149096,22.919001108
2013-09-11,37.570642416,22.540217972
2013-09-12,37.19896296,22.414821352
2013-09-13,36.847415328,22.323856024
2013-09-14,37.087066976,23.093205788
2013-09-15,38.183968056,23.117990332
2013-09-16,37.960257064,23.144693556
2013-09-17,36.771980496,23.047769608
2013-09-18,36.281492096,22.6539522
2013-09-19,35.591476744,22.470460116
2013-09-20,35.385558496,22.53190182
2013-09-21,36.45556256,22.98456342
2013-09-22,37.355612216,22.794205272
2013-09-23,37.16676544,22.484088892
2013-09-24,37.199336592,22.691176712
2013-09-25,37.786473848,22.466202412
2013-09-26,37.250668664,22.436541264
2013-09-27,37.049465384,22.527509504
2013-09-28,37.713413144,22.484583396
2013-09-29,,22.295513276
2013-09-30,37.572143024,22.396326436
2013-10-01,37.682427648,22.440417196
2013-10-02,38.479909536,23.162727212
2013-10-03,38.554167472,23.471634744
2013-10-04,38.38100716,23.258239428
2013-10-05,37.993908328,23.019569256
2013-10-06,38.107890568,22.644150428
2013-10-07,37.981009712,22.831887412
2013-10-08,38.18171532,23.416634692
2013-10-09,40.276784272,22.282285016
2013-10-10,41.329876736,22.592282896
2013-10-11,42.648658856,22.713571704
2013-10-12,42.6530882,22.751803132
2013-10-13,42.355652728,22.350208372
2013-10-14,42.13113876,22.148533796
2013-10-15,42.002564288,21.713733576
2013-10-16,42.173363456,22.47785196
2013-10-17,42.588837232,22.373222392
2013-10-18,42.532418568,22.76141146
2013-10-19,42.947638584,22.918194608
2013-10-20,43.490246632,23.24726742
2013-10-21,44.152349512,23.478848776
2013-10-22,44.62483612,22.87031716
2013-10-23,44.392614752,23.16240046
2013-10-24,44.405909712,23.339172536
2013-10-25,44.440251304,24.07754526
2013-10-26,44.43815468,24.633850428
2013-10-27,44.415037576,24.248939428
2013-10-28,44.503655688,24.212806116
2013-10-29,44.652811104,24.6266691
2013-10-30,44.851050096,25.390143288
2013-10-31,45.218405696,24.771915384
2013-11-01,45.777509192,25.066021716
2013-11-02,46.308030816,24.8644926
2013-11-03,46.144874016,24.54014348
2013-11-04,45.123545624,24.446632852
2013-11-05,45.72677196,24.592658992
2013-11-06,46.203615064,25.491790688
2013-11-07,45.952738304,25.42144058
2013-11-08,46.237001192,25.539279324
2013-11-09,46.16344892,26.194944172
2013-11-10,46.084309688,25.678567904
2013-11-11,45.967306864,26.345271304
2013-11-12,46.483346352,25.797204168
2013-11-13,46.61776704,25.64382324
2013-11-14,46.380588384,25.544336432
2013-11-15,46.648208096,25.937413028
2013-11-16,47.466478792,26.140874328
2013-11-17,47.161883632,26.191113476
2013-11-18,46.711196952,25.922247444
2013-11-19,47.141715464,26.1984984
2013-11-20,47.72222288,26.597555948
2013-11-21,48.270554288,26.612159908
2013-11-22,48.17217724,26.710414608
2013-11-23,49.031766376,27.155326088
2013-11-24,48.700342872,27.013673392
2013-11-25,48.358277888,27.259768328
2013-11-26,49.054261536,26.832280712
2013-11-27,49.625165208,26.786598736
2013-11-28,49.27355572,26.739329404
2013-11-29,49.307342576,26.849985432
2013-11-30,49.552385768,27.8004753
2013-12-01,50.911460728,27.29397476
2013-12-02,50.73088736,27.222657848
2013-12-03,51.023399672,27.455865364
2013-12-04,51.09871252,27.12350194
2013-12-05,50.937563392,26.944008552
2013-12-06,51.103101336,26.40541838
2013-12-07,51.150169432,27.86050112
2013-12-08,51.942779624,27.874586908
2013-12-09,52.580648232,27.997492456
2013-12-10,52.847361984,27.775787904
2013-12-11,53.212449904,27.195050068
2013-12-12,52.70970612,26.94045072
2013-12-13,51.584494392,27.138484064
2013-12-14,52.432026216,27.89096464
2013-12-15,52.946975568,27.414538448
2013-12-16,52.901129792,27.630120356
2013-12-17,52.969025504,27.493660084
2013-12-18,52.751126344,28.030911976
2013-12-19,53.489345832,27.514089104
2013-12-20,53.995967072,28.034216428
2013-12-21,53.887131416,27.363685624
2013-12-22,54.061103992,27.235880184
2013-12-23,53.39836676,27.872179856
2013-12-24,53.624613256,27.053183004
2013-12-25,53.278881376,25.896092236
2013-12-26,52.990003392,27.34065654
2013-12-27,53.52872748,28.119195096
2013-12-28,53.717653592,28.041119684
2013-12-29,53.785493632,28.66464506
2013-12-30,54.606101688,28.949105676
2013-12-31,55.030006544,27.843696224
2014-01-01,55.059122544,27.521165408
2014-01-02,55.079585048,29.739963972
2014-01-03,56.341254296,29.537837812
2014-01-04,56.689077224,30.579187968
2014-01-05,56.987000552,30.31302142
2014-01-06,57.451769552,30.36840756
2014-01-07,57.301160928,29.908862764
2014-01-08,57.684674664,30.284551388
2014-01-09,57.723875232,29.941642392
2014-01-10,57.239084888,29.4250009
2014-01-11,56.769960312,30.879007404
2014-01-12,57.72851428,30.325813052
2014-01-13,57.73626324,30.77940058
2014-01-14,57.899021624,30.254673264
2014-01-15,57.266570104,30.288634824
2014-01-16,57.6763378,30.243685048
2014-01-17,57.737748952,30.343118428
2014-01-18,58.667110656,30.722147228
2014-01-19,58.793085968,30.427162772
2014-01-20,58.19000892,30.488490372
2014-01-21,58.863730592,30.651338348
2014-01-22,59.20230696,30.119313872
2014-01-23,58.027116728,29.939875996
2014-01-24,57.7064472,30.316887812
2014-01-25,59.357974528,31.392497948
2014-01-26,60.309383184,31.38629432
2014-01-27,60.26186292,30.990470912
2014-01-28,59.919964976,30.265362564
2014-01-29,58.855454512,30.4891496
2014-01-30,59.581555536,30.469275
2014-01-31,59.126191232,30.452340128
2014-02-01,59.788950536,30.969503832
2014-02-02,60.434505296,31.19334342
2014-02-03,61.346080344,30.86944194
2014-02-04,61.629415888,30.80883858
2014-02-05,61.607579032,30.326313144
2014-02-06,66.9516892,30.992759668
2014-02-07,70.369898544,30.938436144
2014-02-08,69.817605592,31.6203024
2014-02-09,69.714172048,31.929256516
2014-02-10,64.243125064,31.74527802
2014-02-11,62.730592896,31.72783014
2014-02-12,62.43308696,30.774504644
2014-02-13,60.644932192,30.583296908
2014-02-14,60.328181,31.060861008
2014-02-15,61.739907184,32.784117896
2014-02-16,62.816019144,33.151241684
2014-02-17,63.281553904,32.97392518
2014-02-18,63.586070264,32.442855004
2014-02-19,63.854387504,32.428788432
2014-02-20,63.918255288,32.69839582
2014-02-21,64.239938776,32.766924792
2014-02-22,64.3532504,33.427029292
2014-02-23,64.225933336,33.204990228
2014-02-24,63.595456848,33.503626052
2014-02-25,64.013389208,33.628544104
2014-02-26,64.261182304,33.411024988
2014-02-27,63.5704572,33.219490544
2014-02-28,63.822191864,33.324492852
2014-03-01,65.609327256,34.835314328
2014-03-02,66.604069656,34.051438616
2014-03-03,66.527218224,34.493668312
2014-03-04,66.81114772,34.208176084
2014-03-05,66.75041064,34.32278036
2014-03-06,66.732510304,33.74077854
2014-03-07,66.479659136,33.982332704
2014-03-08,67.110751024,34.059636348
2014-03-09,66.88553156,33.36007624
2014-03-10,65.179199968,33.306971604
2014-03-11,64.95640064,33.78389828
2014-03-12,65.030050136,33.66111566
2014-03-13,64.508393224,33.731525832
2014-03-14,64.01989832,33.650613828
2014-03-15,64.28179604,34.829251352
2014-03-16,65.38759868,33.91384088
2014-03-17,64.79487232,34.165408296
2014-03-18,64.79698188,33.544604848
2014-03-19,64.997354328,33.575268056
2014-03-20,65.580477744,34.033353108
2014-03-21,65.611489008,34.852464688
2014-03-22,66.626456384,36.19325356
2014-03-23,66.851949968,35.623464764
2014-03-24,67.259158368,35.94822988
2014-03-25,67.956532352,35.771175284
2014-03-26,67.8355356,35.585766996
2014-03-27,67.55037464,35.843012612
2014-03-28,67.653033832,36.507369664
2014-03-29,68.800045104,37.426089012
2014-03-30,69.16462864,36.995303432
2014-03-31,69.28242036,36.29179304
2014-04-01,70.178437368,35.342167516
2014-04-02,70.073369696,35.424049252
2014-04-03,69.260779232,35.7452528
2014-04-04,69.895053624,36.033626324
2014-04-05,70.344374368,36.123307332
2014-04-06,69.929477904,35.146685532
2014-04-07,69.199557656,35.328017644
2014-04-08,67.195931792,34.58048362
2014-04-09,61.978508296,32.706015872
2014-04-10,59.50168964,31.814602728
2014-04-11,60.433740384,32.636742216
2014-04-12,61.570231608,33.650116148
2014-04-13,63.624989208,33.737543792
2014-04-14,64.062961208,34.082678368
2014-04-15,64.539389856,33.551734672
2014-04-16,64.306986624,33.083894584
2014-04-17,63.036923776,33.185780336
2014-04-18,58.216192448,32.550870644
2014-04-19,59.01884476,33.093753436
2014-04-20,59.944120656,32.700025268
2014-04-21,61.237543384,33.949572308
2014-04-22,62.883295456,34.691949812
2014-04-23,64.50331088,35.127393788
2014-04-24,65.765145128,35.033178696
2014-04-25,65.992245552,36.06335662
2014-04-26,66.077134552,36.08784032
2014-04-27,65.674345088,36.080053044
2014-04-28,66.64556652,36.297860416
2014-04-29,66.205880872,36.436898612
2014-04-30,66.716891936,36.81099042
2014-05-01,68.141306576,36.699384896
2014-05-02,68.970718016,37.977127452
2014-05-03,70.274606104,38.036489408
2014-05-04,71.708112296,37.51821414
2014-05-05,71.645027136,38.227497748
2014-05-06,72.19886732,38.184365352
2014-05-07,71.843536088,37.49647882
2014-05-08,71.589756488,37.97803888
2014-05-09,72.492774024,38.230384476
2014-05-10,73.955583096,39.54077972
2014-05-11,74.330493072,39.26814888
2014-05-12,74.648146752,38.883006852
2014-05-13,75.159601496,38.747824944
2014-05-14,75.154781592,37.77782408
2014-05-15,74.473646312,38.262127212
2014-05-16,74.861944808,38.07282878
2014-05-17,74.856082768,38.389160436
2014-05-18,74.816141872,38.279215968
2014-05-19,74.720200424,38.657588792
2014-05-20,75.334498,38.1485522
2014-05-21,73.934569056,37.829474408
2014-05-22,73.764536328,38.380156096
2014-05-23,74.49107208,38.960138836
2014-05-24,75.01997964,39.143199912
2014-05-25,75.251078352,37.824793812
2014-05-26,74.126627384,38.680642608
2014-05-27,74.744722776,39.14145224
2014-05-28,75.30904736,38.576427392
2014-05-29,75.237734952,39.013330428
2014-05-30,74.615166232,38.741559832
2014-05-31,74.96938084,38.230814248
2014-06-01,76.305683568,38.481775156
2014-06-02,77.493497544,39.717897348
2014-06-03,78.367706024,39.462404784
2014-06-04,78.112333168,39.33734084
2014-06-05,78.921455816,39.589517028
2014-06-06,80.257676024,39.25699286
2014-06-07,80.50176588,38.950480472
2014-06-08,81.462895936,38.284251848
2014-06-09,81.5576438,39.71109504
2014-06-10,81.832024392,38.900463132
2014-06-11,81.500180312,39.561993252
2014-06-12,82.979976832,38.452088464
2014-06-13,83.037650272,38.579131184
2014-06-14,82.909630744,39.261312832
2014-06-15,83.260186704,39.111536968
2014-06-16,84.155166,39.825638068
2014-06-17,84.572069104,40.037918452
2014-06-18,84.55034592,39.754769424
2014-06-19,83.827291312,40.24030032
2014-06-20,85.447738664,40.309056528
2014-06-21,86.268606544,40.756391232
2014-06-22,85.445698296,39.944094428
2014-06-23,84.979778512,40.637871704
2014-06-24,85.642950584,40.559814572
2014-06-25,84.673616608,40.61318862
2014-06-26,85.901668848,39.731843108
2014-06-27,86.286189368,40.955391224
2014-06-28,86.843323128,40.044613448
2014-06-29,87.189886168,38.569378588
2014-06-30,84.885331528,38.789661548
2014-07-01,85.085330976,38.352788368
2014-07-02,84.490191904,39.42246752
2014-07-03,86.249904104,39.327319796
2014-07-04,86.848211336,38.840172916
2014-07-05,86.950062816,38.574763812
2014-07-06,85.54266972,39.766418824
2014-07-07,83.803519056,40.700846204
2014-07-08,83.254006144,40.168037996
2014-07-09,83.540301656,39.742097668
2014-07-10,83.567789032,39.947720844
2014-07-11,83.574676552,40.114003672
2014-07-12,84.500083496,40.169625784
2014-07-13,84.728615992,39.592380548
2014-07-14,84.70946072,41.068656656
2014-07-15,85.33297164,40.416101436
2014-07-16,85.547140976,40.805691504
2014-07-17,86.44663908,40.409080492
2014-07-18,86.588262656,39.418850708
2014-07-19,84.90827,39.46628942
2014-07-20,85.649356296,40.333049712
2014-07-21,85.901377568,41.412944956
2014-07-22,86.220382672,41.6940253
2014-07-23,87.012961296,41.443887636
2014-07-24,86.895759704,41.0162675
2014-07-25,87.169037808,40.999879748
2014-07-26,87.14958684,40.587203236
2014-07-27,87.254515528,39.941059504
2014-07-28,87.413513344,41.553861936
2014-07-29,86.812710616,40.602817608
2014-07-30,87.590973232,40.937588524
2014-07-31,88.546446392,41.816203668
2014-08-01,89.52834168,41.317969984
2014-08-02,90.786684208,41.671541152
2014-08-03,90.32408932,41.013290028
2014-08-04,90.133311256,41.487682104
2014-08-05,89.75518684,41.9418889
2014-08-06,89.548371352,41.510059172
2014-08-07,89.912485544,41.9769319
2014-08-08,90.36579692,42.045988548
2014-08-09,90.816133824,42.48390436
2014-08-10,90.279813528,42.72791076
2014-08-11,90.368057896,42.375941784
2014-08-12,90.089916056,42.429748244
2014-08-13,89.802056552,43.524360988
2014-08-14,89.88111892,43.019787504
2014-08-15,89.415841192,43.046202724
2014-08-16,89.161785224,43.24288034
2014-08-17,89.282305296,42.808400316
2014-08-18,89.402230344,43.840595476
2014-08-19,90.275051288,42.896153756
2014-08-20,90.208897072,42.122207484
2014-08-21,89.774238088,42.336221124
2014-08-22,90.639093848,43.48709496
2014-08-23,92.49038888,44.692477416
2014-08-24,93.757427408,45.168873644
2014-08-25,93.932667296,44.320212796
2014-08-26,93.005944584,44.611085876
2014-08-27,93.2184652,44.549060692
2014-08-28,94.269532584,44.615656948
2014-08-29,93.19115928,44.564708284
2014-08-30,93.546783704,44.100502316
2014-08-31,94.14578692,43.74913132
2014-09-01,95.037463592,45.254028852
2014-09-02,96.62880852,45.735955324
2014-09-03,96.472826,44.881056516
2014-09-04,96.117798944,45.65347996
2014-09-05,97.364322112,46.055600716
2014-09-06,97.268686216,45.452629928
2014-09-07,96.804067688,44.197107488
2014-09-08,97.281412592,44.484716612
2014-09-09,96.646112888,43.911240476
2014-09-10,95.799334056,44.180500548
2014-09-11,96.008762968,44.2103625
2014-09-12,96.6507518,44.89937184
2014-09-13,96.79267912,44.86212282
2014-09-14,97.052747728,44.94584602
2014-09-15,97.372131456,44.75396618
2014-09-16,96.446759624,44.113922636
2014-09-17,96.255256776,44.655132492
2014-09-18,96.945874328,43.945405664
2014-09-19,96.330728576,44.636368316
2014-09-20,99.3123684,45.7554679
2014-09-21,98.619950992,44.448820416
2014-09-22,97.20353936,45.360602744
2014-09-23,96.948639048,45.39871574
2014-09-24,96.92126112,44.881145952
2014-09-25,97.049826264,44.632164096
2014-09-26,97.202896128,44.824083524
2014-09-27,97.560308472,45.222006864
2014-09-28,97.962033552,45.115473028
2014-09-29,97.60460536,45.200207748
2014-09-30,97.992454936,44.792497388
2014-10-01,99.370111984,44.825932324
2014-10-02,99.865617392,44.608697472
2014-10-03,100.06602144,44.488038312
2014-10-04,99.807339928,44.000070536
2014-10-05,99.64977076,44.153409724
2014-10-06,99.308652096,45.539567836
2014-10-07,99.934472432,45.924299176
2014-10-08,100.45771868,46.11602184
2014-10-09,101.006421016,45.892194152
2014-10-10,101.346435904,47.042454448
2014-10-11,101.426382144,47.883323648
2014-10-12,102.266905136,46.779304832
2014-10-13,101.561533376,46.810958648
2014-10-14,101.142016912,46.48977074
2014-10-15,100.71857624,45.60669206
2014-10-16,101.947806928,46.740464056
2014-10-17,103.410251472,47.218210728
2014-10-18,103.410486104,47.325603524
2014-10-19,103.895341512,46.755115976
2014-10-20,103.668408496,47.024938032
2014-10-21,103.648055504,47.081309716
2014-10-22,103.526357072,46.88007598
2014-10-23,103.80081592,46.450076076
2014-10-24,104.71852296,47.57498382
2014-10-25,105.398937488,47.763049252
2014-10-26,106.320030584,47.235245428
2014-10-27,105.80522908,48.146742212
2014-10-28,105.745169528,47.6492815
2014-10-29,105.203411504,47.315346324
2014-10-30,104.953559008,47.261991188
2014-10-31,105.320561768,48.343418192
2014-11-01,106.368437416,49.20550012
2014-11-02,107.223975864,48.36315306
2014-11-03,106.460506392,48.056688532
2014-11-04,107.083589056,47.9961351
2014-11-05,106.241078064,47.935234628
2014-11-06,105.637257752,47.680566024
2014-11-07,105.727978368,47.828801456
2014-11-08,105.78334944,49.101119932
2014-11-09,105.495231616,47.349533144
2014-11-10,103.95706288,47.380891252
2014-11-11,103.236772264,47.265094996
2014-11-12,102.595774096,47.221189456
2014-11-13,103.845072496,46.725689112
2014-11-14,104.275896632,47.16432614
2014-11-15,104.93154912,48.366200548
2014-11-16,105.369556064,47.925128136
2014-11-17,104.634131976,47.566786284
2014-11-18,104.213310432,47.031482336
2014-11-19,103.24639788,47.077050892
2014-11-20,104.04629092,46.590475936
2014-11-21,104.706784072,47.108802564
2014-11-22,105.609278808,47.776331996
2014-11-23,105.635322728,47.080439824
2014-11-24,105.233702768,47.405225572
2014-11-25,105.973145152,46.981565916
2014-11-26,106.225006112,46.569495168
2014-11-27,104.87952776,46.090124732
2014-11-28,104.208661784,47.333933976
2014-11-29,105.324953,48.168799204
2014-11-30,106.007649176,47.052291044
2014-12-01,106.293019888,47.660930872
2014-12-02,106.976258248,47.341783136
2014-12-03,106.941318416,47.675534024
2014-12-04,108.342715912,47.370089876
